Regional Weather Roundup
Issued by NWS Mobile, AL

Home | Current Version | Previous Version | Text Only | Print | Product List | Glossary Off
Versions: 1 2 3 4 5 6 7 8 9 10 11 12 13 14 15 16 17 18 19 20 21 22 23 24 25 26 27 28 29 30 31 32 33 34 35 36 37 38 39 40 41 42 43 44 45 46 47 48 49 50

000
ASUS44 KMOB 221117
RWRMOB
REGIONAL WEATHER ROUNDUP
NATIONAL WEATHER SERVICE MOBILE AL
600 AM CDT FRI MAY 22 2015

ALZ061>064-221200-
COASTAL ALABAMA


CITY           SKY/WX    TMP DP  RH WIND       PRES   REMARKS
MOBILE REG APT PTCLDY    58  55  90 N12       30.16R
BROOKLEY FIELD PTCLDY    62  56  80 N15       30.15R
GULF SHORES    CLOUDY    64  61  92 N6        30.11R

$$

ALZ051>060-221200-
INTERIOR SOUTHWEST AND SOUTH CENTRAL ALABAMA


CITY           SKY/WX    TMP DP  RH WIND       PRES   REMARKS
ANDALUSIA/OPP  CLEAR     61  51  70 NE6       30.15R
EVERGREEN      CLEAR     56  53  90 N5        30.17R
FLORALA        MOSUNNY   58  53  84 N6        30.16R
GREENVILLE     FAIR      55  51  86 N3        30.16R

$$

FLZ001>006-221200-
WESTERN FLORIDA PANHANDLE


CITY           SKY/WX    TMP DP  RH WIND       PRES   REMARKS
CRESTVIEW      CLEAR     63  57  81 N7        30.14R
DESTIN         PTCLDY    68  61  78 N7        30.11R
DUKE FIELD     MOCLDY    64  58  82 N14       30.12R HAZE
MARY ESTHER    PTCLDY    65  59  81 N8        30.10R
MILTON         MOSUNNY   64  57  78 N13       30.13R
PENSACOLA      MOCLDY    65  59  81 N12G18    30.12R
NAS PENSACOLA  MOCLDY    65  61  87 N10       30.12R
VALPARAISO     MOCLDY    66  59  80 N9        30.11R

$$

...MARINE OBSERVATIONS...

STATION/POSITION TIME  SKY/WX   TEMP    WIND        PRES    VSBY
                                AIR SEA DIR/SP/G
                 (UTC)          (F)     (DEG/KT/KT) (MB)    (MI)
PASCAGOULA       1000            64      10/ 13/ 17 1019.3R
PETIT BOIS ISL   1000            67      20/ 18/ 23 1019.4R
E DAUPHIN ISLAND 1100            67     360/ 17/ 19 1019.9R
MIDDLE BAY LIGHT 1000            66      10/ 22     1019.0R
USCG MOBILE BAY  1000            63 80  360/  7/ 12 1019.4R
STATE DOCKS      1000            63 78              1020.1R
MEAHER PARK      1100            61     350/  8     1020.6R
FORT MORGAN      1000            69      40/ 19/ 21 1018.7R
12 S ORANGE BCH  1050            70 80   20/ 16/ 19 1018.4R
WVE H/P(F/S)=  2/ 3

PENSACOLA BAY    1000            68 82   10/  4/  7 1019.2R
64 S DAUPHIN ISL 1050            78 81   60/ 16/ 19 1018.4R
WVE H/P(F/S)=  2/ 4

67 S FORT MORGAN 1030            79      80/ 14     1017.6R
115 SE PENSACOLA 1050            80 81  260/  4/  4 1017.8R
WVE H/P(F/S)=  1/ 4

MID GULF/42001   1050            80 82  130/  6/  6 1018.0R
WVE H/P(F/S)=  1/ 4

EAST GULF/42003  1050            80 82   CALM  /  2 1017.6R
WVE H/P(F/S)=  1/ 8


$$

...NEARBY LOCATIONS

CITY           SKY/WX    TMP DP  RH WIND       PRES   REMARKS
GULFPORT       CLOUDY    62  57  83 N8        30.14R
BILOXI         CLOUDY    62  58  86 NE16      30.13R
PASCAGOULA     PTCLDY    61  57  87 N13       30.14R
HATTIESBURG    CLEAR     56  53  90 N5        30.21R
LAUREL         CLEAR     54  48  82 N5        30.21R
MERIDIAN       PTCLDY    52  48  86 NE8       30.22R
MERIDIAN NAS   MOCLDY    51  48  89 N6        30.23R
MONTGOMERY     PTCLDY    55  48  77 N5        30.18R
MAXWELL AFB    PTCLDY    55  49  81 N5        30.17R
TROY           PTCLDY    56  51  84 N6        30.17R
FORT RUCKER    CLEAR     58  51  78 N6        30.14R
DALEVILLE      CLEAR     59  52  76 N10       30.14R
DOTHAN         CLEAR     58  52  80 N7        30.17R

$$

...OTHER SURROUNDING LOCATIONS...

CITY           SKY/WX    TMP DP  RH WIND       PRES   REMARKS
BIRMINGHAM     PTCLDY    49  47  93 N5        30.21R
TUSCALOOSA     PTCLDY    50  47  89 N5        30.22R
COLUMBUS GA    CLOUDY    56  46  69 N5        30.13R
PANAMA CITY    NOT AVBL
TALLAHASSEE    MOCLDY    69  61  75 N9        30.08R
BATON ROUGE    CLOUDY    64  61  90 NE5       30.15R
NEW ORLEANS    CLOUDY    70  64  81 NE14      30.13R
SLIDELL        CLOUDY    65  63  93 N13       30.14R
JACKSON        PTCLDY    52  49  89 NE8       30.23R
MCCOMB         CLOUDY    59  55  87 NE8       30.18R

$$

...SURROUNDING MARINE OBSERVATIONS...

STATION/POSITION TIME  SKY/WX   TEMP    WIND        PRES    VSBY
                                AIR SEA DIR/SP/G
                 (UTC)          (F)     (DEG/KT/KT) (MB)    (MI)
WAVELAND         1000            64 76   20/ 17/ 20 1019.9R
PASCAGOULA RGN A 1000            64      20/ 10/ 15 1019.0R
PASCAGOULA PORT  1000               81                N/A
GRAND ISLE       1000            75 83   40/ 11/ 17 1018.0R
SOUTHWEST PASS   1100            78      10/  8/  8 1018.5R
PILOT STATION E  1000            77 74   40/  5/  5 1017.8R
SHELL BEACH      1000            71 82   40/ 18/ 20 1018.2R
PANAMA CITY      1000            71 83  360/  8/ 12 1017.8R
APALACHICOLA     1000            72 81   10/  6/  7 1017.4R
TYNDALL TOWER C  1100            75      20/ 13/ 13 1018.2R
S APLCHCLA/42036 1050            80 80   40/ 12/ 12 1017.3R
WVE H/P(F/S)=  1/ 4


$$



USA.gov is the U.S. government's official web portal to all federal, state and local government web resources and services.